Weather History for KWRI - February, 2014

Change the Weather History Date:

Sunday, February 2, 2014

  Actual Average Record
Temperature  
Mean Temperature 40 °F -  
Max Temperature 55 °F 40 °F 57 °F (2006)
Min Temperature 26 °F 23 °F 10 °F (2005)
Degree Days  
Heating Degree Days 24    
Moisture  
Dew Point 31 °F    
Average Humidity 83    
Maximum Humidity 100    
Minimum Humidity 44    
Precipitation  
Precipitation 0.00 in - - ()
Sea Level Pressure  
Sea Level Pressure 29.97 in    
Wind  
Wind Speed 2 mph (West)    
Max Wind Speed 8 mph    
Max Gust Speed -    
Visibility 8 miles    
Events      
Averages and records for this station are not official NWS values.
T = Trace of Precipitation, MM = Missing Value Source: NWS Daily Summary

Daily Weather History Graph

Daily Weather History Graph

Search for Another Location

Airport or City:

Trip Planner

Search our weather history database for the weather conditions in past years. The results will help you decide how hot, cold, wet, or windy it might be!

Date:

Astronomy

Feb. 02, 2014 Rise Set
Actual Time 7:05 AM EST 5:18 PM EST
Civil Twilight 6:37 AM EST 5:47 PM EST
Nautical Twilight 6:05 AM EST 6:19 PM EST
Astronomical Twilight 5:33 AM EST 6:51 PM EST
Moon 8:31 AM EST (2/2) 8:59 PM EST (2/2)
Length of Visible Light 11h 09m
Length of Day
10h 12m
Waxing Crescent, 11% of the Moon is Illuminated
Feb 2
Waxing Crescent
Feb 6
First Quarter
Feb 14
Full
Feb 22
Last Quarter
Mar 1
New

Hourly Weather History & Observations

Time (EST) Temp. Windchill Dew Point Humidity Pressure Visibility Wind Dir Wind Speed Gust Speed Precip Events Conditions
12:58 AM 32.2 °F - 30.4 °F 93% 29.99 in 10.0 mi North 1.2 mph - N/A   Overcast
1:13 AM 32.0 °F - 32.0 °F 100% 29.97 in 10.0 mi Calm Calm - N/A   Overcast
1:58 AM 34.5 °F - 32.7 °F 93% 29.96 in 10.0 mi Calm Calm - N/A   Overcast
2:16 AM 35.6 °F - 32.0 °F 87% 29.94 in 10.0 mi Calm Calm - N/A   Overcast
2:58 AM 34.3 °F - 32.5 °F 93% 29.94 in 10.0 mi Calm Calm - N/A   Mostly Cloudy
3:58 AM 32.4 °F - 31.1 °F 95% 29.94 in 10.0 mi WSW 2.3 mph - N/A   Clear
4:58 AM 28.8 °F - 27.7 °F 96% 29.94 in 9.0 mi Calm Calm - N/A   Clear
5:58 AM 27.7 °F - 27.0 °F 97% 29.95 in 10.0 mi Calm Calm - N/A   Clear
6:22 AM 28.4 °F - 28.4 °F 100% 29.93 in 6.0 mi Calm Calm - N/A   Clear
6:25 AM 28.4 °F - 28.4 °F 100% 29.93 in 5.0 mi South 2.3 mph - N/A   Clear
6:28 AM 28.4 °F - 28.4 °F 100% 29.93 in 2.5 mi SSW 2.3 mph - N/A   Clear
6:31 AM 28.4 °F - 28.4 °F 100% 29.93 in 2.0 mi SSW 2.3 mph - N/A   Clear
6:34 AM 28.4 °F - 28.4 °F 100% 29.93 in 1.5 mi SSW 2.3 mph - N/A   Clear
6:37 AM 28.4 °F - 28.4 °F 100% 29.93 in 1.5 mi SW 2.3 mph - N/A   Clear
6:40 AM 28.4 °F 24.6 °F 28.4 °F 100% 29.93 in 1.8 mi SW 3.5 mph - N/A   Clear
6:43 AM 28.4 °F 24.6 °F 28.4 °F 100% 29.93 in 2.5 mi SSW 3.5 mph - N/A   Clear
6:46 AM 28.4 °F 24.6 °F 26.6 °F 93% 29.93 in 5.0 mi SW 3.5 mph - N/A   Clear
6:49 AM 26.6 °F 22.6 °F 26.6 °F 100% 29.93 in 6.0 mi SSW 3.5 mph - N/A   Clear
6:52 AM 26.6 °F - 26.6 °F 100% 29.93 in 8.0 mi SW 2.3 mph - N/A   Clear
6:55 AM 26.6 °F - 26.6 °F 100% 29.94 in 8.0 mi WSW 2.3 mph - N/A   Clear
6:58 AM 27.3 °F - 26.8 °F 98% 29.96 in 7.0 mi WSW 2.3 mph - N/A   Clear
7:58 AM 30.4 °F - 30.2 °F 99% 29.98 in 9.0 mi West 2.3 mph - N/A   Clear
8:58 AM 38.1 °F - 37.4 °F 97% 29.98 in 10.0 mi West 2.3 mph - N/A   Clear
9:58 AM 43.5 °F 39.4 °F 36.5 °F 76% 29.98 in 10.0 mi West 6.9 mph - N/A   Clear
10:58 AM 47.3 °F - 34.3 °F 61% 29.99 in 10.0 mi WNW 4.6 mph - N/A   Clear
11:58 AM 48.9 °F - 33.3 °F 55% 29.99 in 10.0 mi West 6.9 mph - N/A   Overcast
12:58 PM 52.0 °F - 33.3 °F 49% 29.96 in 10.0 mi West 4.6 mph - N/A   Mostly Cloudy
1:58 PM 54.5 °F - 34.5 °F 47% 29.96 in 10.0 mi WNW 8.1 mph - N/A   Mostly Cloudy
2:58 PM 55.0 °F - 33.6 °F 44% 29.94 in 10.0 mi NW 1.2 mph - N/A   Clear
3:58 PM 55.4 °F - 34.2 °F 45% 29.94 in 10.0 mi WNW 2.3 mph - N/A   Clear
4:58 PM 51.3 °F - 33.4 °F 51% 29.98 in 10.0 mi NW 3.5 mph - N/A   Clear
5:58 PM 46.0 °F - 33.4 °F 61% 29.98 in 10.0 mi Calm Calm - N/A   Overcast
6:58 PM 44.6 °F - 35.1 °F 69% 30.01 in 10.0 mi WSW 1.2 mph - N/A   Overcast
7:58 PM 45.0 °F 43.5 °F 35.2 °F 69% 30.04 in 10.0 mi NNW 3.5 mph - N/A   Overcast
8:58 PM 45.7 °F 42.7 °F 35.4 °F 67% 30.04 in 10.0 mi North 5.8 mph - N/A   Overcast
9:58 PM 45.3 °F 41.6 °F 35.8 °F 69% 30.06 in 10.0 mi North 6.9 mph - N/A   Overcast
10:58 PM 44.1 °F 39.5 °F 36.3 °F 74% 30.07 in 10.0 mi NNE 8.1 mph - N/A   Overcast
11:58 PM 42.4 °F 38.8 °F 35.2 °F 76% 30.06 in 10.0 mi NNE 5.8 mph - N/A   Overcast